Roanoke, VA

11:48 PM EST on November 19, 2019 (GMT -0500)
Roanoke Regional-Woodrum

Weather History for KROA - September, 2019

Change the Weather History Date:

Sunday, September 15, 2019

  Actual Average Record
Temperature  
Mean Temperature 76 °F 68 °F  
Max Temperature 87 °F 79 °F 95 °F (1927)
Min Temperature 65 °F 58 °F 42 °F (1964)
Degree Days  
Heating Degree Days 0 1  
Month to date heating degree days 0 7  
Since 1 July heating degree days 0 8  
Cooling Degree Days 11 5  
Month to date cooling degree days 181 96  
Year to date cooling degree days 1544 1143  
Growing Degree Days 26 (Base 50)    
Moisture  
Dew Point 66 °F    
Average Humidity 71    
Maximum Humidity 100    
Minimum Humidity 42    
Precipitation  
Precipitation 0.00 in 0.15 in 2.50 in (1989)
Month to date precipitation 0.80 2.04  
Year to date precipitation 31.50 30.17  
Snow  
Snow 0.00 in - - ()
Month to date snowfall 0.0  
Since 1 July snowfall T  
Since 1 September snowfall 0.0  
Snow Depth 0.00 in    
Sea Level Pressure  
Sea Level Pressure 30.18 in    
Wind  
Wind Speed 5 mph (NNE)    
Max Wind Speed 10 mph    
Max Gust Speed 13 mph    
Visibility 7 miles    
Events      
T = Trace of Precipitation, MM = Missing Value Source: NWS Daily Summary

Daily Weather History Graph

Daily Weather History Graph

Search for Another Location

Airport or City:

Astronomy

Sep. 15, 2019 Rise Set
Actual Time 7:01 AM EDT 7:27 PM EDT
Civil Twilight 6:35 AM EDT 7:54 PM EDT
Nautical Twilight 6:04 AM EDT 8:24 PM EDT
Astronomical Twilight 5:33 AM EDT 8:56 PM EDT
Moon 8:36 PM EDT (9/15) 8:09 AM EDT (9/15)
Length of Visible Light 13h 18m
Length of Day
12h 26m
Full, 98% of the Moon is Illuminated
Sep 15
Full
Sep 21
Last Quarter
Sep 28
New
Oct 5
First Quarter
Oct 13
Full

Hourly Weather History & Observations

Time (EDT) Temp. Heat Index Dew Point Humidity Pressure Visibility Wind Dir Wind Speed Gust Speed Precip Events Conditions
12:54 AM 70.0 °F - 69.1 °F 97% 30.19 in 3.0 mi Calm Calm - N/A   Clear
1:32 AM 70.0 °F - 69.1 °F 97% 30.22 in 3.0 mi Calm Calm - N/A   Mostly Cloudy
1:54 AM 69.1 °F - 68.0 °F 96% 30.19 in 3.0 mi WNW 3.5 mph - N/A   Mostly Cloudy
2:54 AM 69.1 °F - 68.0 °F 96% 30.19 in 3.0 mi WNW 3.5 mph - N/A   Mostly Cloudy
3:01 AM 69.1 °F - 68.0 °F 96% 30.22 in 10.0 mi Calm Calm - N/A   Clear
3:20 AM 69.1 °F - 68.0 °F 96% 30.21 in 1.8 mi NE 4.6 mph - N/A   Clear
3:25 AM 69.8 °F - 68.0 °F 94% 30.21 in 0.8 mi NNE 3.5 mph - N/A   Mist
3:34 AM 69.1 °F - 68.0 °F 96% 30.21 in 1.0 mi NNE 3.5 mph - N/A   Mostly Cloudy
3:39 AM 69.1 °F - 68.0 °F 96% 30.21 in 3.0 mi NNE 3.5 mph - N/A   Mostly Cloudy
3:54 AM 69.1 °F - 68.0 °F 96% 30.18 in 3.0 mi NNE 4.6 mph - N/A   Mostly Cloudy
4:06 AM 69.1 °F - 68.0 °F 96% 30.21 in 0.8 mi North 5.8 mph - N/A   Mostly Cloudy
4:54 AM 68.0 °F - 66.9 °F 96% 30.18 in 1.5 mi NE 3.5 mph - N/A   Mist
5:54 AM 68.0 °F - 66.9 °F 96% 30.19 in 10.0 mi NE 5.8 mph - N/A   Scattered Clouds
6:54 AM 66.9 °F - 66.0 °F 97% 30.20 in 10.0 mi NNE 6.9 mph - N/A   Scattered Clouds
7:54 AM 68.0 °F - 66.0 °F 93% 30.21 in 10.0 mi North 5.8 mph - N/A   Partly Cloudy
9:30 AM 71.1 °F - 66.0 °F 84% 30.25 in 10.0 mi Calm Calm - N/A   Mostly Cloudy
9:54 AM 72.0 °F - 66.9 °F 84% 30.23 in 10.0 mi West 4.6 mph - N/A   Mostly Cloudy
10:54 AM 75.9 °F - 66.9 °F 74% 30.23 in 10.0 mi NNE 4.6 mph - N/A   Scattered Clouds
11:54 AM 77.0 °F - 68.0 °F 74% 30.21 in 10.0 mi North 6.9 mph - N/A   Scattered Clouds
12:54 PM 80.1 °F 82.1 °F 66.0 °F 62% 30.19 in 10.0 mi Calm Calm - N/A   Scattered Clouds
1:54 PM 84.0 °F 85.8 °F 64.9 °F 53% 30.16 in 10.0 mi ESE 5.8 mph - N/A   Mostly Cloudy
2:54 PM 84.9 °F 85.4 °F 62.1 °F 46% 30.14 in 10.0 mi SW 6.9 mph - N/A   Partly Cloudy
3:54 PM 84.9 °F 85.0 °F 61.0 °F 44% 30.12 in 10.0 mi South 5.8 mph - N/A   Partly Cloudy
4:54 PM 86.0 °F 85.7 °F 60.1 °F 41% 30.11 in 10.0 mi Variable 5.8 mph - N/A   Partly Cloudy
5:54 PM 84.9 °F 85.4 °F 62.1 °F 46% 30.10 in 10.0 mi SSE 8.1 mph - N/A   Partly Cloudy
6:54 PM 81.0 °F 82.2 °F 63.0 °F 54% 30.11 in 10.0 mi SE 9.2 mph - N/A   Clear
7:54 PM 79.0 °F - 62.1 °F 56% 30.10 in 10.0 mi Calm Calm - N/A   Clear
8:54 PM 73.0 °F - 64.0 °F 73% 30.12 in 10.0 mi Calm Calm - N/A   Clear
9:54 PM 73.0 °F - 64.0 °F 73% 30.13 in 10.0 mi Calm Calm - N/A   Clear
10:54 PM 70.0 °F - 64.0 °F 81% 30.14 in 10.0 mi SE 3.5 mph - N/A   Clear
11:54 PM 66.9 °F - 64.0 °F 90% 30.14 in 10.0 mi West 3.5 mph - N/A   Clear